{"data":{"norad_id":60936,"epoch":"2026-09-21T21:13:20.820000Z","epoch_age_seconds":68894,"freshness":"FRESH","line1":"1 60936U 24155N   26264.88426875 -.00000672  00000+0 -69066-6 0  9998","line2":"2 60936  53.1594  94.3235 0001043  60.7623 299.3499 15.69707381119217","mean_motion":15.69707381,"eccentricity":0.0001043,"inclination_deg":53.1594,"raan_deg":94.3235,"arg_perigee_deg":60.7623,"mean_anomaly_deg":299.3499,"bstar":-6.9066e-7,"rev_number":11921,"period_min":91.736843276014,"perigee_km":359.03148503485,"apogee_km":360.43700497656,"semimajor_km":6737.8712450057,"source":"CELESTRAK","updated_at":"2026-09-22T09:00:49.291960Z"}}